SWA2117 KOKC-KDAL

Flight info

Callsign SWA2117
Flight time N/A
Altitude 25000
Route KRMSN4 KRMSN AIRRE HIBIL3
Aircraft B737/M-SDE2E3FGHIRWXY/LB1

Departure

Time 2026-05-04 21:15
Airport OKC Will Rogers World Airport (KOKC)

Arrival

Time N/A
Airport Dallas Love Field (KDAL)
Time Latitude Longitude Altitude Speed Heading
2026-05-04 20:47 35.39462 -97.59700 1300 ft 0 kts 31°
2026-05-04 20:56 35.39456 -97.59703 1300 ft 4 kts 31°
2026-05-04 20:56 35.39435 -97.59720 1299 ft 4 kts 39°
2026-05-04 20:57 35.39418 -97.59743 1299 ft 4 kts 71°
2026-05-04 20:57 35.39417 -97.59769 1298 ft 1 kts 112°
2026-05-04 21:08 35.39416 -97.59766 1298 ft 3 kts 112°
2026-05-04 21:08 35.39399 -97.59707 1299 ft 11 kts 107°
2026-05-04 21:08 35.39385 -97.59610 1299 ft 12 kts 94°
2026-05-04 21:09 35.39337 -97.59536 1299 ft 12 kts 156°
2026-05-04 21:09 35.39251 -97.59533 1296 ft 13 kts 173°
2026-05-04 21:09 35.39221 -97.59440 1297 ft 14 kts 90°
2026-05-04 21:09 35.39226 -97.59279 1295 ft 22 kts 94°
2026-05-04 21:10 35.39232 -97.59093 1294 ft 22 kts 57°
2026-05-04 21:10 35.39379 -97.59074 1297 ft 22 kts 359°
2026-05-04 21:10 35.39530 -97.59072 1295 ft 22 kts
2026-05-04 21:10 35.39679 -97.59064 1297 ft 21 kts
2026-05-04 21:11 35.39822 -97.59062 1298 ft 21 kts
2026-05-04 21:11 35.39977 -97.59065 1295 ft 23 kts 359°
2026-05-04 21:11 35.40135 -97.59073 1297 ft 22 kts 356°
2026-05-04 21:11 35.40180 -97.59078 1298 ft 2 kts 355°
2026-05-04 21:12 35.40191 -97.59076 1297 ft 7 kts
2026-05-04 21:12 35.40289 -97.59071 1296 ft 16 kts 359°
2026-05-04 21:12 35.40394 -97.59060 1295 ft 5 kts 13°
2026-05-04 21:12 35.40406 -97.59047 1295 ft 2 kts 85°
2026-05-04 21:13 35.40403 -97.59026 1296 ft 3 kts 99°
2026-05-04 21:13 35.40393 -97.58956 1298 ft 10 kts 98°
2026-05-04 21:13 35.40388 -97.58916 1299 ft 6 kts 99°
2026-05-04 21:13 35.40357 -97.58890 1300 ft 8 kts 178°
2026-05-04 21:14 35.40119 -97.58890 1297 ft 69 kts 180°
2026-05-04 21:14 35.39411 -97.58907 1295 ft 131 kts 179°
2026-05-04 21:14 35.38409 -97.58943 1400 ft 170 kts 184°
2026-05-04 21:14 35.37161 -97.59072 1804 ft 193 kts 188°
2026-05-04 21:15 35.35786 -97.59530 2357 ft 208 kts 197°
2026-05-04 21:15 35.34352 -97.59676 2981 ft 215 kts 181°
2026-05-04 21:15 35.32848 -97.59614 3801 ft 220 kts 182°
2026-05-04 21:15 35.31224 -97.59546 4317 ft 242 kts 182°
2026-05-04 21:16 35.29522 -97.59505 5177 ft 249 kts 182°
2026-05-04 21:16 35.27769 -97.59557 5919 ft 258 kts 191°
2026-05-04 21:16 35.25978 -97.59776 6713 ft 257 kts 192°
2026-05-04 21:16 35.24286 -97.60040 7767 ft 234 kts 197°
2026-05-04 21:17 35.22760 -97.60165 8852 ft 225 kts 177°
2026-05-04 21:17 35.21268 -97.59322 9244 ft 252 kts 151°
2026-05-04 21:17 35.19975 -97.57704 9382 ft 280 kts 132°
2026-05-04 21:17 35.18811 -97.55688 9558 ft 301 kts 129°
2026-05-04 21:18 35.17613 -97.53493 9863 ft 317 kts 128°
2026-05-04 21:18 35.16381 -97.51207 10322 ft 330 kts 128°
2026-05-04 21:18 35.15067 -97.48787 10511 ft 354 kts 128°
2026-05-04 21:18 35.13671 -97.46227 11033 ft 367 kts 128°
2026-05-04 21:19 35.12727 -97.44501 11507 ft 371 kts 128°
2026-05-04 21:19 35.10814 -97.41009 12587 ft 375 kts 128°
2026-05-04 21:19 35.09353 -97.38350 13424 ft 379 kts 127°
2026-05-04 21:19 35.07872 -97.35665 14165 ft 384 kts 127°
2026-05-04 21:20 35.06372 -97.32949 14928 ft 388 kts 127°
2026-05-04 21:20 35.05368 -97.31133 15411 ft 392 kts 127°
2026-05-04 21:20 35.03835 -97.28359 16162 ft 397 kts 127°
2026-05-04 21:20 35.02274 -97.25533 16866 ft 404 kts 127°
2026-05-04 21:21 35.00688 -97.22672 17543 ft 411 kts 127°
2026-05-04 21:21 34.98538 -97.18824 18449 ft 418 kts 129°
2026-05-04 21:21 34.96660 -97.16116 19098 ft 419 kts 140°
2026-05-04 21:21 34.94449 -97.13814 19736 ft 420 kts 146°
2026-05-04 21:22 34.92138 -97.11586 20352 ft 426 kts 146°
2026-05-04 21:22 34.90596 -97.10092 20752 ft 430 kts 146°
2026-05-04 21:22 34.88267 -97.07782 21350 ft 435 kts 146°
2026-05-04 21:22 34.85914 -97.05409 21950 ft 441 kts 145°
2026-05-04 21:23 34.83555 -97.03011 22607 ft 444 kts 145°
2026-05-04 21:23 34.80397 -96.99798 22778 ft 449 kts 145°
2026-05-04 21:23 34.77985 -96.97348 23104 ft 453 kts 145°
2026-05-04 21:23 34.76352 -96.95689 23590 ft 452 kts 144°
2026-05-04 21:24 34.73976 -96.93278 24259 ft 450 kts 145°
2026-05-04 21:24 34.71570 -96.90843 24623 ft 451 kts 146°
2026-05-04 21:24 34.69153 -96.88401 24791 ft 452 kts 146°
2026-05-04 21:24 34.66737 -96.85961 24781 ft 450 kts 146°
2026-05-04 21:25 34.64921 -96.84125 24786 ft 447 kts 146°
2026-05-04 21:26 34.64415 -96.83614 24799 ft 447 kts 146°
2026-05-04 21:26 34.62033 -96.81210 24780 ft 445 kts 146°
2026-05-04 21:26 34.59645 -96.78801 24792 ft 450 kts 146°
2026-05-04 21:26 34.57205 -96.76347 24802 ft 461 kts 146°
2026-05-04 21:27 34.54716 -96.73849 24777 ft 465 kts 146°
2026-05-04 21:27 34.52243 -96.71343 24773 ft 462 kts 145°
2026-05-04 21:27 34.49798 -96.68829 24772 ft 460 kts 145°
2026-05-04 21:27 34.47350 -96.66298 24682 ft 465 kts 144°
2026-05-04 21:28 34.44893 -96.63753 24449 ft 462 kts 144°
2026-05-04 21:28 34.42530 -96.61298 24201 ft 445 kts 144°
2026-05-04 21:28 34.40223 -96.58899 23960 ft 429 kts 144°
2026-05-04 21:28 34.37992 -96.56584 23716 ft 415 kts 144°
2026-05-04 21:29 34.35834 -96.54353 23486 ft 405 kts 145°
2026-05-04 21:29 34.33711 -96.52164 23131 ft 398 kts 145°
2026-05-04 21:29 34.31616 -96.50002 22521 ft 395 kts 143°
2026-05-04 21:29 34.29540 -96.47827 21855 ft 394 kts 143°
2026-05-04 21:30 34.27472 -96.45680 21284 ft 390 kts 143°
2026-05-04 21:30 34.25435 -96.43583 20805 ft 389 kts 144°
2026-05-04 21:30 34.23379 -96.41476 20450 ft 385 kts 144°
2026-05-04 21:30 34.20668 -96.38698 19996 ft 379 kts 144°
2026-05-04 21:31 34.17341 -96.35293 19373 ft 375 kts 144°
2026-05-04 21:31 34.15359 -96.33264 19005 ft 372 kts 144°
2026-05-04 21:31 34.13389 -96.31249 18869 ft 373 kts 144°
2026-05-04 21:32 34.11402 -96.29220 18843 ft 373 kts 144°
2026-05-04 21:32 34.09427 -96.27201 18838 ft 370 kts 143°
2026-05-04 21:32 34.07464 -96.25195 18840 ft 371 kts 143°
2026-05-04 21:32 34.05528 -96.23219 18829 ft 372 kts 144°
2026-05-04 21:33 34.03570 -96.21222 18839 ft 372 kts 144°
2026-05-04 21:33 34.01572 -96.19236 18838 ft 372 kts 146°
2026-05-04 21:33 33.99557 -96.17270 18841 ft 374 kts 144°
2026-05-04 21:33 33.97585 -96.15223 18849 ft 374 kts 144°
2026-05-04 21:34 33.95618 -96.13171 18854 ft 375 kts 144°
2026-05-04 21:34 33.93629 -96.11128 18838 ft 375 kts 144°
2026-05-04 21:34 33.91660 -96.09206 18833 ft 371 kts 153°
2026-05-04 21:34 33.89339 -96.08067 18853 ft 354 kts 178°
2026-05-04 21:35 33.86968 -96.07923 18852 ft 342 kts 194°
2026-05-04 21:35 33.84702 -96.08554 18859 ft 331 kts 207°
2026-05-04 21:35 33.82643 -96.09465 18835 ft 329 kts 210°
2026-05-04 21:35 33.80517 -96.10476 18834 ft 330 kts 210°
2026-05-04 21:36 33.78324 -96.11534 18854 ft 349 kts 210°
2026-05-04 21:36 33.76038 -96.12618 18838 ft 353 kts 209°
2026-05-04 21:36 33.73771 -96.13664 18835 ft 344 kts 209°
2026-05-04 21:36 33.71599 -96.14650 18750 ft 332 kts 209°
2026-05-04 21:37 33.69466 -96.15616 18405 ft 325 kts 209°
2026-05-04 21:37 33.67358 -96.16574 17855 ft 324 kts 209°
2026-05-04 21:37 33.65258 -96.17529 17248 ft 321 kts 209°
2026-05-04 21:37 33.63186 -96.18469 16626 ft 318 kts 208°
2026-05-04 21:38 33.61126 -96.19405 15998 ft 315 kts 208°
2026-05-04 21:38 33.59082 -96.20335 15407 ft 314 kts 208°
2026-05-04 21:38 33.57072 -96.21204 15204 ft 302 kts 206°
2026-05-04 21:38 33.55127 -96.21931 14957 ft 287 kts 205°
2026-05-04 21:39 33.53219 -96.22628 14420 ft 289 kts 205°
2026-05-04 21:39 33.51261 -96.23351 13571 ft 301 kts 204°
2026-05-04 21:39 33.49246 -96.24099 12985 ft 302 kts 204°
2026-05-04 21:39 33.47250 -96.24838 12512 ft 299 kts 204°
2026-05-04 21:40 33.45280 -96.25569 12087 ft 295 kts 204°
2026-05-04 21:40 33.43347 -96.26308 11675 ft 287 kts 205°
2026-05-04 21:40 33.41490 -96.27077 11283 ft 278 kts 206°
2026-05-04 21:40 33.39703 -96.27829 10707 ft 277 kts 206°
2026-05-04 21:41 33.37909 -96.28583 10411 ft 266 kts 206°
2026-05-04 21:41 33.36191 -96.29298 10216 ft 256 kts 206°
2026-05-04 21:41 33.34528 -96.29990 10106 ft 252 kts 206°
2026-05-04 21:41 33.32870 -96.30681 9943 ft 254 kts 206°
2026-05-04 21:42 33.31234 -96.31519 9601 ft 254 kts 221°
2026-05-04 21:42 33.30063 -96.33019 9291 ft 243 kts 239°
2026-05-04 21:42 33.29155 -96.34682 9123 ft 238 kts 241°
2026-05-04 21:42 33.28291 -96.36353 9036 ft 239 kts 242°
2026-05-04 21:43 33.27442 -96.38018 8842 ft 232 kts 242°
2026-05-04 21:43 33.26684 -96.39715 8435 ft 232 kts 248°
2026-05-04 21:43 33.26040 -96.41455 8206 ft 224 kts 248°
2026-05-04 21:43 33.25432 -96.43108 7972 ft 211 kts 248°
2026-05-04 21:44 33.24846 -96.44678 7726 ft 204 kts 247°
2026-05-04 21:44 33.24269 -96.46198 7495 ft 199 kts 247°
2026-05-04 21:44 33.23689 -96.47708 7258 ft 203 kts 246°
2026-05-04 21:44 33.23106 -96.49211 7027 ft 198 kts 246°
2026-05-04 21:45 33.22545 -96.50648 6769 ft 185 kts 246°
2026-05-04 21:45 33.22018 -96.51993 6519 ft 173 kts 246°
2026-05-04 21:45 33.21524 -96.53247 6276 ft 164 kts 246°
2026-05-04 21:45 33.21032 -96.54489 5955 ft 169 kts 245°
2026-05-04 21:46 33.20994 -96.54583 5911 ft 170 kts 245°
2026-05-04 21:46 33.20631 -96.55469 5599 ft 170 kts 244°
2026-05-04 21:46 33.20132 -96.56688 5383 ft 158 kts 244°
2026-05-04 21:46 33.19670 -96.57857 5139 ft 155 kts 244°
2026-05-04 21:47 33.19206 -96.59028 4902 ft 158 kts 244°
2026-05-04 21:47 33.18740 -96.60203 4687 ft 159 kts 243°
2026-05-04 21:47 33.18272 -96.61380 4419 ft 155 kts 243°
2026-05-04 21:47 33.17818 -96.62522 4170 ft 150 kts 241°
2026-05-04 21:48 33.17383 -96.63613 3898 ft 144 kts 240°
2026-05-04 21:48 33.16963 -96.64665 3598 ft 138 kts 237°
2026-05-04 21:48 33.16539 -96.65719 3081 ft 145 kts 236°
2026-05-04 21:48 33.16098 -96.66816 2658 ft 145 kts 236°
2026-05-04 21:49 33.15681 -96.67857 2539 ft 138 kts 236°
2026-05-04 21:50 33.15513 -96.68276 2514 ft 139 kts 237°
2026-05-04 21:50 33.15095 -96.69314 2502 ft 139 kts 237°
2026-05-04 21:50 33.14671 -96.70377 2490 ft 145 kts 240°
2026-05-04 21:50 33.14376 -96.71541 2509 ft 149 kts 250°
2026-05-04 21:51 33.14108 -96.72725 2501 ft 145 kts 238°
2026-05-04 21:51 33.13824 -96.73475 2502 ft 141 kts 239°
2026-05-04 21:52 33.13678 -96.73917 2492 ft 140 kts 241°
2026-05-04 21:52 33.13294 -96.74956 2483 ft 136 kts 233°
2026-05-04 21:52 33.12810 -96.75960 2489 ft 141 kts 233°
2026-05-04 21:52 33.12322 -96.76976 2482 ft 141 kts 233°